This is the latest recevied weather packets stored in our database for station/object K0QED. If no packets are shown the sender has not sent any weather packets the latest 10 day(s).
| Time | Temp. | Humidity | Pressure | Rain* | Wind** | Luminosity | Snow |
|---|---|---|---|---|---|---|---|
| 1788520309 | 18.33° C | 36% | 1023.1 hPa | 0 mm | - | 0 W/m² | - |
| 1788520004 | 18.33° C | 36% | 1023 hPa | 0 mm | - | 0 W/m² | - |
| 1788519703 | 18.33° C | 36% | 1023.1 hPa | 0 mm | - | 0 W/m² | - |
| 1788519408 | 18.33° C | 36% | 1022.7 hPa | 0 mm | - | 0 W/m² | - |
| 1788519093 | 18.33° C | 36% | 1023 hPa | 0 mm | - | 0 W/m² | - |
| 1788518789 | 18.89° C | 36% | 1022.6 hPa | 0 mm | - | 0 W/m² | - |
| 1788518484 | 18.89° C | 36% | 1022.9 hPa | 0 mm | - | 0 W/m² | - |
| 1788518180 | 18.89° C | 35% | 1022.6 hPa | 0 mm | - | 0 W/m² | - |
| 1788517876 | 18.33° C | 36% | 1022.5 hPa | 0 mm | - | 0 W/m² | - |
| 1788517572 | 18.33° C | 36% | 1022.5 hPa | 0 mm | - | 0 W/m² | - |
| 1788517267 | 17.78° C | 36% | 1022.5 hPa | 0 mm | - | 0 W/m² | - |
| 1788516963 | 17.22° C | 39% | 1022.4 hPa | 0 mm | - | 0 W/m² | - |
| 1788516658 | 16.11° C | 42% | 1022.2 hPa | 0 mm | - | 0 W/m² | - |
| 1788516384 | 15.56° C | 47% | 1022 hPa | 0 mm | - | 0 W/m² | - |
| 1788516049 | 15° C | 48% | 1022.4 hPa | 0 mm | - | 0 W/m² | - |
| 1788515744 | 15° C | 50% | 1022.5 hPa | 0 mm | - | 0 W/m² | - |
| 1788515439 | 15° C | 52% | 1022.4 hPa | 0 mm | - | 0 W/m² | - |
| 1788515134 | 15° C | 52% | 1022.4 hPa | 0 mm | - | 0 W/m² | - |
| 1788514840 | 15° C | 54% | 1022.4 hPa | 0 mm | - | 0 W/m² | - |
| 1788514526 | 14.44° C | 55% | 1022.1 hPa | 0 mm | - | 0 W/m² | - |
| 1788514226 | 14.44° C | 56% | 1022 hPa | 0 mm | - | 0 W/m² | - |
| 1788513921 | 14.44° C | 55% | 1022 hPa | 0 mm | - | 0 W/m² | - |
| 1788513618 | 14.44° C | 59% | 1021.9 hPa | 0 mm | - | 0 W/m² | - |
| 1788513314 | 13.89° C | 59% | 1022 hPa | 0 mm | - | 0 W/m² | - |
| 1788513013 | 15° C | 61% | 1022 hPa | 0 mm | - | 0 W/m² | - |
* Rain latest hour (hover to see other rain measurements)
** Current wind speed in m/s (hover to see current wind gust speed)